Paynesville, MN

10:03 AM CST on January 19, 2018 (GMT -0600)
Paynesville

Weather History for KPEX - March, 2013

Change the Weather History Date:

Friday, March 1, 2013

  Actual Average (KLJF) Record (KLJF)
Temperature  
Mean Temperature 12 °F -  
Max Temperature 25 °F 35 °F 59 °F (1990)
Min Temperature 0 °F 16 °F -32 °F (1962)
Degree Days  
Heating Degree Days 52    
Moisture  
Dew Point 12 °F    
Average Humidity 78    
Maximum Humidity 90    
Minimum Humidity 65    
Precipitation  
Precipitation 0.00 in - - ()
Sea Level Pressure  
Sea Level Pressure 30.32 in    
Wind  
Wind Speed 5 mph (NNE)    
Max Wind Speed 9 mph    
Max Gust Speed 16 mph    
Visibility 10 miles    
Events      
Averages and records for this station are not official NWS values.
T = Trace of Precipitation, MM = Missing Value Source: NWS Daily Summary

Daily Weather History Graph

Daily Weather History Graph

Search for Another Location

Airport or City:

Trip Planner

Search our weather history database for the weather conditions in past years. The results will help you decide how hot, cold, wet, or windy it might be!

Date:

Astronomy

Mar. 01, 2013 Rise Set
Actual Time 6:56 AM CST 6:06 PM CST
Civil Twilight 6:27 AM CST 6:36 PM CST
Nautical Twilight 5:52 AM CST 7:10 PM CST
Astronomical Twilight 5:18 AM CST 7:44 PM CST
Moon 10:56 PM CST (3/1) 8:29 AM CST (3/1)
Length of Visible Light 12h 09m
Length of Day
11h 09m
Waning Gibbous, 83% of the Moon is Illuminated
Mar 1
Waning Gibbous
Mar 4
Last Quarter
Mar 11
New
Mar 19
First Quarter
Mar 27
Full

Hourly Weather History & Observations

Time (CST) Temp. Windchill Dew Point Humidity Pressure Visibility Wind Dir Wind Speed Gust Speed Precip Events Conditions
12:13 AM 14.9 °F - 12.0 °F 88% 30.24 in 10.0 mi Calm Calm - N/A   Clear
12:33 AM 13.1 °F 7.1 °F 10.8 °F 90% 30.24 in 10.0 mi NNE 3.5 mph - N/A   Clear
12:52 AM 16.3 °F 9.2 °F 12.0 °F 83% 30.24 in 10.0 mi North 4.6 mph - N/A   Clear
1:13 AM 16.9 °F 9.8 °F 10.9 °F 77% 30.24 in 10.0 mi North 4.6 mph - N/A   Clear
1:33 AM 15.8 °F 5.1 °F 10.4 °F 79% 30.25 in 10.0 mi NNE 8.1 mph - N/A   Clear
1:52 AM 16.7 °F 7.2 °F 10.9 °F 78% 30.25 in 10.0 mi NNE 6.9 mph - N/A   Scattered Clouds
2:13 AM 17.8 °F 8.5 °F 11.8 °F 78% 30.25 in 10.0 mi North 6.9 mph - N/A   Overcast
2:33 AM 17.4 °F 8.0 °F 12.0 °F 79% 30.25 in 10.0 mi NNE 6.9 mph - N/A   Overcast
2:52 AM 17.2 °F 8.9 °F 12.0 °F 80% 30.25 in 10.0 mi NNE 5.8 mph - N/A   Overcast
3:13 AM 17.2 °F 7.8 °F 12.6 °F 82% 30.25 in 10.0 mi NNE 6.9 mph - N/A   Overcast
3:33 AM 17.6 °F 9.3 °F 13.1 °F 83% 30.26 in 10.0 mi NNE 5.8 mph - N/A   Overcast
3:53 AM 17.6 °F 9.3 °F 13.5 °F 84% 30.26 in 10.0 mi NNE 5.8 mph - N/A   Overcast
4:13 AM 17.6 °F 8.2 °F 13.5 °F 84% 30.27 in 10.0 mi NNE 6.9 mph - N/A   Overcast
4:33 AM 18.0 °F 9.8 °F 14.0 °F 84% 30.28 in 10.0 mi NNE 5.8 mph - N/A   Overcast
4:53 AM 18.3 °F 10.2 °F 14.0 °F 83% 30.28 in 10.0 mi North 5.8 mph - N/A   Overcast
5:13 AM 18.1 °F 11.3 °F 14.2 °F 84% 30.29 in 10.0 mi NNE 4.6 mph - N/A   Overcast
5:33 AM 18.1 °F 10.0 °F 14.0 °F 84% 30.29 in 10.0 mi NNE 5.8 mph - N/A   Overcast
5:53 AM 18.5 °F 10.4 °F 14.5 °F 85% 30.29 in 10.0 mi NE 5.8 mph - N/A   Overcast
6:13 AM 18.5 °F 10.4 °F 14.4 °F 84% 30.30 in 10.0 mi NNE 5.8 mph - N/A   Overcast
6:33 AM 18.5 °F 11.7 °F 14.0 °F 83% 30.30 in 10.0 mi NNE 4.6 mph - N/A   Overcast
6:53 AM 18.5 °F 11.7 °F 14.0 °F 83% 30.31 in 10.0 mi North 4.6 mph - N/A   Overcast
7:12 AM 18.5 °F 11.7 °F 14.0 °F 83% 30.31 in 10.0 mi NNE 4.6 mph - N/A   Overcast
7:33 AM 18.5 °F 11.7 °F 14.0 °F 83% 30.32 in 10.0 mi NNE 4.6 mph - N/A   Overcast
8:13 AM 19.2 °F 12.5 °F 14.0 °F 80% 30.33 in 10.0 mi NNE 4.6 mph - N/A   Overcast
8:32 AM 19.4 °F 10.4 °F 14.2 °F 80% 30.33 in 10.0 mi NNE 6.9 mph - N/A   Overcast
8:53 AM 19.9 °F 11.1 °F 14.4 °F 79% 30.33 in 10.0 mi NNE 6.9 mph - N/A   Overcast
9:13 AM 20.3 °F 12.5 °F 14.2 °F 77% 30.34 in 10.0 mi North 5.8 mph - N/A   Overcast
9:33 AM 20.7 °F 11.0 °F 14.5 °F 77% 30.34 in 10.0 mi North 8.1 mph - N/A   Overcast
9:53 AM 20.8 °F 12.1 °F 14.5 °F 77% 30.34 in 10.0 mi NNE 6.9 mph - N/A   Overcast
10:13 AM 21.2 °F 11.7 °F 14.5 °F 75% 30.34 in 10.0 mi North 8.1 mph - N/A   Overcast
10:32 AM 21.6 °F 11.3 °F 14.5 °F 74% 30.34 in 10.0 mi North 9.2 mph - N/A   Overcast
10:53 AM 21.9 °F 14.5 °F 14.4 °F 73% 30.35 in 10.0 mi North 5.8 mph - N/A   Overcast
11:13 AM 21.7 °F 12.3 °F 14.2 °F 73% 30.35 in 10.0 mi North 8.1 mph - N/A   Overcast
11:33 AM 22.1 °F 12.8 °F 14.0 °F 71% 30.36 in 10.0 mi North 8.1 mph - N/A   Overcast
11:53 AM 22.3 °F 13.0 °F 13.8 °F 70% 30.36 in 10.0 mi NNE 8.1 mph - N/A   Overcast
12:13 PM 22.5 °F 13.2 °F 13.8 °F 69% 30.36 in 10.0 mi NNE 8.1 mph - N/A   Overcast
12:33 PM 23.4 °F 14.3 °F 14.9 °F 70% 30.35 in 10.0 mi NNE 8.1 mph - N/A   Overcast
12:53 PM 23.0 °F 13.1 °F 14.4 °F 70% 30.35 in 10.0 mi NNE 9.2 mph - N/A   Overcast
1:13 PM 23.5 °F 13.7 °F 14.7 °F 69% 30.34 in 10.0 mi NNE 9.2 mph 16.1 mph N/A   Mostly Cloudy
1:33 PM 23.5 °F 15.4 °F 15.1 °F 70% 30.34 in 10.0 mi North 6.9 mph - N/A   Mostly Cloudy
1:53 PM 24.3 °F 17.3 °F 15.1 °F 68% 30.33 in 10.0 mi North 5.8 mph - N/A   Mostly Cloudy
2:13 PM 23.7 °F 14.7 °F 14.9 °F 69% 30.33 in 10.0 mi NNW 8.1 mph - N/A   Mostly Cloudy
2:33 PM 24.8 °F 16.1 °F 15.4 °F 68% 30.32 in 10.0 mi North 8.1 mph - N/A   Scattered Clouds
3:13 PM 25.2 °F 18.3 °F 15.4 °F 67% 30.33 in 10.0 mi North 5.8 mph - N/A   Clear
3:33 PM 24.8 °F 17.9 °F 14.7 °F 66% 30.33 in 10.0 mi North 5.8 mph - N/A   Clear
4:13 PM 24.8 °F 17.9 °F 14.7 °F 66% 30.33 in 10.0 mi NNE 5.8 mph - N/A   Clear
4:33 PM 24.8 °F 16.9 °F 14.5 °F 65% 30.33 in 10.0 mi NNE 6.9 mph - N/A   Scattered Clouds
5:13 PM 24.6 °F 18.8 °F 14.5 °F 66% 30.33 in 10.0 mi North 4.6 mph - N/A   Clear
5:33 PM 24.4 °F 18.6 °F 14.0 °F 65% 30.34 in 10.0 mi North 4.6 mph - N/A   Clear
5:53 PM 23.5 °F 19.1 °F 13.3 °F 65% 30.34 in 10.0 mi North 3.5 mph - N/A   Clear
6:13 PM 22.6 °F - 12.6 °F 65% 30.35 in 10.0 mi Calm Calm - N/A   Clear
6:33 PM 21.6 °F - 12.0 °F 67% 30.35 in 10.0 mi Calm Calm - N/A   Clear
6:53 PM 20.7 °F 14.2 °F 11.3 °F 67% 30.35 in 10.0 mi NNE 4.6 mph - N/A   Clear
7:13 PM 20.7 °F 15.8 °F 11.3 °F 67% 30.35 in 10.0 mi North 3.5 mph - N/A   Clear
7:33 PM 19.9 °F 14.9 °F 11.1 °F 69% 30.35 in 10.0 mi North 3.5 mph - N/A   Clear
7:53 PM 14.7 °F - 7.9 °F 74% 30.35 in 10.0 mi Calm Calm - N/A   Clear
8:13 PM 11.3 °F - 5.9 °F 79% 30.35 in 10.0 mi Calm Calm - N/A   Clear
8:33 PM 9.5 °F - 6.3 °F 87% 30.35 in 10.0 mi Calm Calm - N/A   Clear
8:53 PM 10.6 °F - 7.7 °F 88% 30.35 in 10.0 mi Calm Calm - N/A   Clear
9:13 PM 10.4 °F - 7.7 °F 89% 30.35 in 10.0 mi Calm Calm - N/A   Clear
9:32 PM 9.5 °F - 7.0 °F 90% 30.35 in 10.0 mi Calm Calm - N/A   Clear
9:53 PM 6.3 °F - 2.8 °F 86% 30.35 in 10.0 mi Calm Calm - N/A   Clear
10:13 PM 5.5 °F - 3.2 °F 90% 30.35 in 10.0 mi Calm Calm - N/A   Clear
10:33 PM 4.3 °F - 1.2 °F 87% 30.35 in 10.0 mi Calm Calm - N/A   Clear
10:53 PM 3.2 °F - 0.3 °F 88% 30.35 in 10.0 mi Calm Calm - N/A   Clear
11:13 PM 3.4 °F - 0.3 °F 87% 30.35 in 10.0 mi Calm Calm - N/A   Clear
11:33 PM 0.1 °F - -3.3 °F 85% 30.34 in 10.0 mi Calm Calm - N/A   Clear
11:53 PM 1.6 °F - -1.5 °F 87% 30.34 in 10.0 mi Calm Calm - N/A   Clear